Time,TemperatureF,DewpointF,PressureIn,WindDirection,WindDirectionDegrees,WindSpeedMPH,WindSpeedGustMPH,Humidity,HourlyPrecipIn,Conditions,Clouds,dailyrainin,SoftwareType,DateUTC
2013-04-19 00:00:00,44.6,37.2,30.13,NE,45,0.0,7.0,75,0.00,RA,FEW,0.00,WeatherDisplay:10.37,2013-04-18 23:00:00,
2013-04-19 00:30:00,44.4,37.3,30.15,NE,45,0.0,7.0,76,0.00,CLR,FEW,0.00,WeatherDisplay:10.37,2013-04-18 23:30:00,
2013-04-19 01:00:00,44.1,37.0,30.16,NE,45,0.0,7.0,76,0.00,CLR,FEW,0.00,WeatherDisplay:10.37,2013-04-19 00:00:00,
2013-04-19 01:30:00,43.5,36.5,30.18,NE,45,0.0,2.0,76,0.00,CLR,FEW,0.00,WeatherDisplay:10.37,2013-04-19 00:30:00,
2013-04-19 02:00:00,43.0,36.3,30.19,NE,45,0.0,1.0,77,0.00,CLR,FEW,0.00,WeatherDisplay:10.37,2013-04-19 01:00:00,
2013-04-19 02:30:00,42.4,35.7,30.21,NE,45,0.0,5.0,77,0.00,CLR,FEW,0.00,WeatherDisplay:10.37,2013-04-19 01:30:00,
2013-04-19 03:00:00,42.3,35.9,30.21,NE,45,0.0,0.0,78,0.00,CLR,FEW,0.00,WeatherDisplay:10.37,2013-04-19 02:00:00,
2013-04-19 03:30:00,41.9,35.5,30.23,NE,45,0.0,2.0,78,0.00,CLR,FEW,0.00,WeatherDisplay:10.37,2013-04-19 02:30:00,
2013-04-19 04:00:00,41.7,35.7,30.24,NE,45,0.0,0.0,79,0.00,CLR,FEW,0.00,WeatherDisplay:10.37,2013-04-19 03:00:00,
2013-04-19 04:30:00,41.7,35.7,30.25,NE,45,0.0,0.0,79,0.00,CLR,FEW,0.00,WeatherDisplay:10.37,2013-04-19 03:30:00,
2013-04-19 05:00:00,41.2,35.5,30.27,NE,45,0.0,0.0,80,0.00,CLR,FEW,0.00,WeatherDisplay:10.37,2013-04-19 04:00:00,
2013-04-19 05:30:00,40.6,35.0,30.28,NE,45,0.0,0.0,80,0.00,CLR,FEW,0.00,WeatherDisplay:10.37,2013-04-19 04:30:00,
2013-04-19 06:00:00,39.9,34.2,30.28,NE,45,0.0,0.0,80,0.00,CLR,FEW,0.00,WeatherDisplay:10.37,2013-04-19 05:00:00,
2013-04-19 06:30:00,39.9,34.6,30.30,NE,45,0.0,0.0,81,0.00,CLR,FEW,0.00,WeatherDisplay:10.37,2013-04-19 05:30:00,
2013-04-19 07:00:00,40.2,34.9,30.32,NE,45,0.0,0.0,81,0.00,CLR,FEW,0.00,WeatherDisplay:10.37,2013-04-19 06:00:00,
2013-04-19 07:30:00,40.9,35.8,30.33,NE,45,0.0,5.0,82,0.00,CLR,FEW,0.00,WeatherDisplay:10.37,2013-04-19 06:30:00,
2013-04-19 08:00:00,42.4,37.3,30.35,NE,45,0.0,0.0,82,0.00,CLR,FEW,0.00,WeatherDisplay:10.37,2013-04-19 07:00:00,
2013-04-19 08:30:00,44.4,39.6,30.37,NE,45,0.0,2.0,83,0.00,CLR,FEW,0.00,WeatherDisplay:10.37,2013-04-19 07:30:00,
2013-04-19 09:01:00,46.8,41.6,30.38,NE,45,0.0,0.0,82,0.00,CLR,FEW,0.00,WeatherDisplay:10.37,2013-04-19 08:01:00,
2013-04-19 09:30:00,47.8,41.9,30.39,NE,45,0.0,8.0,80,0.00,CLR,FEW,0.00,WeatherDisplay:10.37,2013-04-19 08:30:00,
2013-04-19 10:00:00,49.5,42.5,30.40,NE,45,0.0,1.0,77,0.00,CLR,FEW,0.00,WeatherDisplay:10.37,2013-04-19 09:00:00,
2013-04-19 10:30:00,50.4,40.6,30.40,NE,45,0.0,6.0,69,0.00,CLR,FEW,0.00,WeatherDisplay:10.37,2013-04-19 09:30:00,
2013-04-19 11:00:00,51.1,39.3,30.40,NE,45,0.0,13.0,64,0.00,CLR,FEW,0.00,WeatherDisplay:10.37,2013-04-19 10:00:00,
2013-04-19 11:30:00,51.8,37.9,30.41,NE,45,0.0,5.0,59,0.00,CLR,FEW,0.00,WeatherDisplay:10.37,2013-04-19 10:30:00,
2013-04-19 12:00:00,51.8,36.1,30.42,NE,45,0.0,10.0,55,0.00,CLR,FEW,0.00,WeatherDisplay:10.37,2013-04-19 11:00:00,
2013-04-19 12:30:00,52.7,36.5,30.43,NE,45,0.0,4.0,54,0.00,CLR,FEW,0.00,WeatherDisplay:10.37,2013-04-19 11:30:00,
2013-04-19 13:00:00,54.1,37.4,30.43,NE,45,0.0,2.0,53,0.00,CLR,FEW,0.00,WeatherDisplay:10.37,2013-04-19 12:00:00,
2013-04-19 13:30:00,53.8,39.8,30.44,NE,45,0.0,0.0,59,0.00,CLR,FEW,0.00,WeatherDisplay:10.37,2013-04-19 12:30:00,
2013-04-19 14:00:00,53.1,38.2,30.45,NE,45,0.0,0.0,57,0.00,CLR,FEW,0.00,WeatherDisplay:10.37,2013-04-19 13:00:00,
2013-04-19 14:30:00,54.6,40.9,30.46,NE,45,0.0,0.0,60,0.00,CLR,FEW,0.00,WeatherDisplay:10.37,2013-04-19 13:30:00,
2013-04-19 15:00:00,55.8,41.2,30.46,NE,45,0.0,1.0,58,0.00,CLR,FEW,0.00,WeatherDisplay:10.37,2013-04-19 14:00:00,
2013-04-19 15:30:00,56.5,41.9,30.47,NE,45,0.0,1.0,58,0.00,CLR,FEW,0.00,WeatherDisplay:10.37,2013-04-19 14:30:00,
2013-04-19 16:00:00,56.7,41.6,30.46,NE,45,0.0,1.0,57,0.00,CLR,FEW,0.00,WeatherDisplay:10.37,2013-04-19 15:00:00,
2013-04-19 16:30:00,55.9,41.4,30.46,NE,45,0.0,2.0,58,0.00,CLR,FEW,0.00,WeatherDisplay:10.37,2013-04-19 15:30:00,
2013-04-19 17:00:00,55.5,40.1,30.46,NE,45,0.0,2.0,56,0.00,CLR,FEW,0.00,WeatherDisplay:10.37,2013-04-19 16:00:00,
2013-04-19 17:30:00,54.2,39.3,30.47,NE,45,0.0,6.0,57,0.00,CLR,FEW,0.00,WeatherDisplay:10.37,2013-04-19 16:30:00,
2013-04-19 18:00:00,51.8,37.5,30.47,NE,45,0.0,2.0,58,0.00,CLR,FEW,0.00,WeatherDisplay:10.37,2013-04-19 17:00:00,
2013-04-19 18:30:00,50.2,38.1,30.47,NE,45,0.0,4.0,63,0.00,CLR,FEW,0.00,WeatherDisplay:10.37,2013-04-19 17:30:00,
2013-04-19 19:00:00,48.9,37.3,30.47,NE,45,0.0,8.0,64,0.00,CLR,FEW,0.00,WeatherDisplay:10.37,2013-04-19 18:00:00,
2013-04-19 19:30:00,48.2,37.4,30.47,NE,45,0.0,6.0,66,0.00,CLR,FEW,0.00,WeatherDisplay:10.37,2013-04-19 18:30:00,
2013-04-19 20:00:00,47.8,37.8,30.48,NE,45,0.0,3.0,68,0.00,CLR,FEW,0.00,WeatherDisplay:10.37,2013-04-19 19:00:00,
2013-04-19 20:30:00,46.9,37.7,30.49,NE,45,0.0,9.0,70,0.00,CLR,FEW,0.00,WeatherDisplay:10.37,2013-04-19 19:30:00,
2013-04-19 21:00:00,46.4,38.2,30.49,NE,45,0.0,4.0,73,0.00,CLR,FEW,0.00,WeatherDisplay:10.37,2013-04-19 20:00:00,
2013-04-19 21:29:00,46.0,38.6,30.50,NE,45,0.0,4.0,75,0.00,CLR,FEW,0.00,WeatherDisplay:10.37,2013-04-19 20:29:00,
2013-04-19 22:00:00,46.0,38.9,30.49,NE,45,0.0,3.0,76,0.00,CLR,FEW,0.00,WeatherDisplay:10.37,2013-04-19 21:00:00,
2013-04-19 22:29:00,45.9,39.4,30.50,NE,45,0.0,2.0,78,0.00,CLR,FEW,0.00,WeatherDisplay:10.37,2013-04-19 21:29:00,
2013-04-19 23:00:00,46.0,40.2,30.51,NE,45,0.0,1.0,80,0.00,CLR,FEW,0.00,WeatherDisplay:10.37,2013-04-19 22:00:00,
2013-04-19 23:29:00,45.9,40.4,30.51,NE,45,0.0,6.0,81,0.00,CLR,FEW,0.00,WeatherDisplay:10.37,2013-04-19 22:29:00,